Location: Crescent
(42.8242°N, 73.7329°W)
Time: 17:51:27
(UTC+00:00)

Vanguard 1 - Pass Details

Date: 21 February 2026
Orbit: 653 x 3818 km, 34.2° (Epoch: 5 March)

Event Time Altitude Azimuth Distance (km) Brightness Sun altitude
Rises 00:58:31 0° 278° (W) 6,160 15.4 -27.3°
Reaches altitude 10° 01:02:17 10° 272° (W) 5,512 14.8 -27.9°
Maximum altitude 01:18:49 44° 209° (SSW) 4,422 13.3 -30.9°
Enters shadow 01:34:10 21° 154° (SSE) 5,983 13.6 -33.6°
Drops below altitude 10° 01:39:48 10° 146° (SE) 6,819 - -34.5°
Sets 01:45:15 0° 140° (SE) 7,668 - -35.5°
